Regional Weather Roundup
Issued by NWS

Home | Current Version | Previous Version | Text Only | Print | Product List | Glossary On
Versions: 1 2 3 4 5 6 7 8 9 10 11 12 13 14 15 16 17 18 19 20 21 22 23 24 25 26 27 28 29 30 31 32 33 34 35 36 37 38 39 40 41 42 43 44 45 46 47 48 49 50
000
ASUS42 KTBW 292316
RWRFL
FLORIDA REGIONAL WEATHER ROUNDUP
NATIONAL WEATHER SERVICE TAMPA BAY RUSKIN FL
700 PM EDT SUN MAR 29 2015

NOTE: "FAIR" INDICATES FEW OR NO CLOUDS BELOW 12,000 FEET WITH NO
SIGNIFICANT WEATHER AND/OR OBSTRUCTIONS TO VISIBILITY.


FLZ001>010-012>015-112-114-115-300000-
PANHANDLE FLORIDA

CITY           SKY/WX    TMP DP  RH WIND       PRES   REMARKS
PENSACOLA      SUNNY     63  50  62 S12       30.27F
PENSACOLA NAS  MOSUNNY   64  52  64 SE12      30.27F
MILTON NAS     MOSUNNY   63  48  58 S15       30.27
CRESTVIEW      SUNNY     65  44  46 S9        30.28S
DUKE FIELD       N/A    N/A N/A N/A S10         N/A
VALPARAISO     MOSUNNY   63  47  55 S10       30.28F
MARY ESTHER    SUNNY     63  45  51 SE12      30.27F
TRI COUNTY     FAIR      68  42  38 CALM      30.27S
PANAMA CITY    FAIR      63  42  46 S10       30.28S
TYNDALL AFB    SUNNY     62  45  54 S13       30.30S
APALACHICOLA   SUNNY     64  41  42 S8        30.31S

STATION/POSITION SKY/WX   TEMP    WIND        PRES    WAVE   SWELL
                          AIR SEA DIR/SP/G            HT/PER HT/PER
                          (F)     (DEG/KT/KT) (MB)    (FT/S) (FT/S)
30.1N   87.6W              65 67  130/ 14/ 16 1024.0F   3/ 5
29.2N   88.2W              69 71  160/ 16/ 19 1024.4F   3/ 5
28.8N   86.0W              64 75  140/ 12/ 17 1026.0F   2/ 5
PANAMA CITY BEAC           61 63  180/  9/ 10 1025.6F
CAPE SAN BLAS    NOT AVBL
TOWER C                    60     120/  8/  9 1026.3F
28.5N   84.5W              62 68  100/  8/ 10 1026.5F   2/ 5   2/ 5

$$
FLZ011-016>038-118-127-128-134-139-239-300000-
NORTH FLORIDA

CITY           SKY/WX    TMP DP  RH WIND       PRES   REMARKS
MARIANNA       SUNNY     67  40  37 VRB3      30.26F
TALLAHASSEE    MOSUNNY   66  38  35 S10       30.29R
PERRY          SUNNY     66  32  27 CALM      30.31R
CROSS CITY       N/A     68  33  27 NE5       30.29S
LAKE CITY      FAIR      63  30  29 CALM      30.31R
GAINESVILLE    CLEAR     63  28  26 E6        30.31R
MAYPORT NAS    CLEAR     56  38  50 NE10      30.35S
JACKSONVILLE   CLEAR     56  36  47 E12       30.35R
JAX NAS        CLEAR     62  38  40 E9        30.35R
JAX CRAIG      CLEAR     57  36  45 NE10      30.35S
JAX CECIL      CLEAR     59  39  47 E9        30.34R
FERNANDINA BEA FAIR      61  36  39 E8        30.35R
ST AUGUSTINE   CLEAR     58  42  55 NE9       30.36R

STATION/POSITION SKY/WX   TEMP    WIND        PRES    WAVE   SWELL
                          AIR SEA DIR/SP/G            HT/PER HT/PER
                          (F)     (DEG/KT/KT) (MB)    (FT/S) (FT/S)
SHELL POINT                62     190/ 10/ 13   N/A
KEATON BEACH               61     250/  9/ 10 1026.5R
CEDAR KEY                  63     270/  5/  7 1026.7R
FERNANDINA                 56 61   60/  5/  9 1027.2R
30.7N   81.3W                 60                N/A     3/ 7
MAYPORT                    56 61   70/  9/ 11 1027.7R
31.4N   80.9W              53 61  100/  4/  6 1028.4R   4/ 7   3/ 7
ST AUGUSTINE               56 63   30/ 10/ 11 1028.5R

$$
FLZ040-043>046-052-053-057-058-063-144-300000-
INTERIOR CENTRAL FLORIDA

CITY           SKY/WX    TMP DP  RH WIND       PRES   REMARKS
OCALA          CLEAR     66  28  24 NE5       30.30S
THE VILLAGES     N/A     64  34  32 NE8       30.21R
LEESBURG       CLEAR     67  33  28 NE7       30.31R
SANFORD        CLEAR     61  31  32 E13       30.33R
ORLANDO EXEC   CLEAR     63  35  35 E13       30.31R
ORLANDO INTL   CLEAR     64  36  35 E16       30.31R
KISSIMMEE      CLEAR     64  39  39 E14       30.31R
WINTER HAVEN   CLEAR     69  37  30 N10       30.30R
LAKELAND       CLEAR     68  37  32 NE9       30.29S
BARTOW         FAIR      66  36  32 N7        30.30R
OKEECHOBEE     CLEAR     64  43  45 NE8       30.29R

$$
FLZ041-047-054-059-064-141-147-300000-
EAST CENTRAL FLORIDA

CITY           SKY/WX    TMP DP  RH WIND       PRES   REMARKS
ORMOND BEACH   CLEAR     57  32  38 N12       30.33S
DAYTONA BEACH  PTCLDY    60  34  37 NE10      30.34R
DELAND           N/A    N/A N/A N/A NE6       30.34R
NEW SMYRNA BEA CLEAR     59  32  36 N14G21    30.33F
TITUSVILLE     CLEAR     61  36  39 N12       30.33R
CAPE CANAVERAL CLEAR     62  38  41 N6        30.32R
PATRICK AFB    CLEAR     62  36  39 N12       30.32
MELBOURNE      CLEAR     62  39  42 NE16      30.31R
VERO BEACH     CLEAR     63  40  42 N13       30.31R
FT PIERCE      CLEAR     64  42  44 N6        30.30R
STUART         CLEAR     64  39  39 N13G23    30.30R

STATION/POSITION SKY/WX   TEMP    WIND        PRES    WAVE   SWELL
                          AIR SEA DIR/SP/G            HT/PER HT/PER
                          (F)     (DEG/KT/KT) (MB)    (FT/S) (FT/S)
28.5N   80.2W              62 71  330/ 12/ 16 1026.0F
28.9N   78.5W              63 76   20/ 10/ 14 1025.8R
TRIDENT PIER               62 72  360/  9/ 12 1026.8F
28.4N   80.5W                 71                N/A     2/ 9
27.5N   80.2W                 75                N/A     4/ 5

$$
FLZ050-056-061-142-242-148-248-149-249-151-251-155-255-
160-260-300000-
WEST CENTRAL FLORIDA

CITY           SKY/WX    TMP DP  RH WIND       PRES   REMARKS
CRYSTAL RIVER  FAIR      64  37  36 W6        30.30R
INVERNESS      FAIR     N/A N/A N/A N7        30.31R HAZE
BROOKSVILLE    CLEAR     68  35  29 NE8       30.30R
ZEPHYRHILLS    FAIR      68  34  28 NE3       30.30R
CLEARWATER     CLEAR     67  45  45 NW12      30.29R
TAMPA INTL     CLEAR     71  36  27 N7        30.29R
TAMPA EXEC     CLEAR     70  37  30 NE3       30.30R
PLANT CITY     CLEAR     70  41  35 NE6       30.31R
MACDILL AFB    CLEAR     71  41  34 NE7       30.28R
PETER O KNIGHT CLEAR     72  39  30 NE12      30.29R
ST PETERSBURG  CLEAR     71  43  36 NE8       30.27R
SARASOTA       CLEAR     69  47  45 N8        30.26S
VENICE         FAIR      72  41  33 NE9       30.27S

STATION/POSITION SKY/WX   TEMP    WIND        PRES    WAVE   SWELL
                          AIR SEA DIR/SP/G            HT/PER HT/PER
                          (F)     (DEG/KT/KT) (MB)    (FT/S) (FT/S)
CEDAR KEY                  63     270/  5/  7 1026.7R
28.5N   84.5W              62 68  100/  8/ 10 1026.5F   2/ 5   2/ 5
27.3N   84.2W                 72                N/A     3/ 5
CLEARWATER BEACH NOT AVBL
MIDDLE TAMPA BAY           69      30/  5/  7 1025.4S
VENICE                     72 73   30/  7/  8 1024.3S

$$
FLZ066-069-070-075>078-162-262-165-265-300000-
SOUTHWEST FLORIDA AND KEYS

CITY           SKY/WX    TMP DP  RH WIND       PRES   REMARKS
PUNTA GORDA    CLEAR     71  42  35 NE7       30.28S
FT MYERS       CLEAR     73  42  32 NE10      30.24F
SOUTHWEST INTL CLEAR     73  41  31 N8        30.25S
NAPLES         CLEAR     74  43  32 NE10      30.23S
MARCO ISLAND   CLEAR     73  43  33 NE9       30.24R
IMMOKALEE      CLEAR    N/A N/A N/A NE10      30.26S
MARATHON       CLEAR     75  58  55 NE13      30.22R
KEY WEST NAS   PTCLDY    74  54  49 N13       30.22R
KEY WEST INTL  CLEAR     74  56  53 N12       30.23R

STATION/POSITION SKY/WX   TEMP    WIND        PRES    WAVE   SWELL
                          AIR SEA DIR/SP/G            HT/PER HT/PER
                          (F)     (DEG/KT/KT) (MB)    (FT/S) (FT/S)
VENICE                     72 73   30/  7/  8 1024.3S
NAPLES                     74 74   40/  6/  9 1023.5F
26.0N   85.6W              69 74   70/ 14/ 16 1024.5R   2/ 4
DRY TORTUGAS               71      40/ 19/ 21 1023.2F
NW FL BAY                  76      40/ 12/ 15 1023.0
SAND KEY                   73      30/ 16/ 18 1023.3R
SOMBRERO KEY               73      50/ 15/ 17 1024.0R
LONG KEY                   72 74   70/ 18/ 21 1024.3R
MOLASSES REEF              71 77   50/ 19/ 23 1023.2R

$$
FLZ067-068-071>074-168-172>174-300000-
SOUTHEAST FLORIDA

CITY           SKY/WX    TMP DP  RH WIND       PRES   REMARKS
W PALM BEACH   PTCLDY    68  43  40 N17       30.27R
FT LAUDER-EXEC CLEAR     70  38  31 NE14G22   30.26R
FT LAUDERDALE  PTCLDY    69  45  41 NE13      30.25R
POMPANO BEACH  CLEAR     69  43  38 N20G26    30.26S
PEMBROKE PINES CLEAR     70  40  33 NE17      30.27R
OPA LOCKA      CLEAR     71  41  33 NE14G23   30.25R
MIAMI          PTCLDY    71  45  39 NE13G24   30.24S
WEST KENDALL   CLEAR     71  47  42 E16       30.24R
HOMESTEAD      CLEAR     70  51  51 NE16      30.23R

STATION/POSITION SKY/WX   TEMP    WIND        PRES    WAVE   SWELL
                          AIR SEA DIR/SP/G            HT/PER HT/PER
                          (F)     (DEG/KT/KT) (MB)    (FT/S) (FT/S)
PORT EVERGLADES            68      40/  8/ 19 1024.3R
VIRGINIA KEY               71 76   50/ 10/ 17 1023.4F
LAKE WORTH                 67 76   10/ 20/ 25 1024.4R


USA.gov is the U.S. government's official web portal to all federal, state and local government web resources and services.